Weather History for KFDR - November, 2013

Change the Weather History Date:

Friday, November 29, 2013

  Actual Average Record
Temperature  
Mean Temperature 44 °F -  
Max Temperature 61 °F - - ()
Min Temperature 28 °F - - ()
Degree Days  
Heating Degree Days 20    
Moisture  
Dew Point 29 °F    
Average Humidity 60    
Maximum Humidity 82    
Minimum Humidity 31    
Precipitation  
Precipitation 0.00 in - - ()
Sea Level Pressure  
Sea Level Pressure 30.32 in    
Wind  
Wind Speed 8 mph (SSE)    
Max Wind Speed 20 mph    
Max Gust Speed 20 mph    
Visibility 10 miles    
Events      
T = Trace of Precipitation, MM = Missing Value Source: NWS Daily Summary

Daily Weather History Graph

Daily Weather History Graph

Search for Another Location

Airport or City:

Trip Planner

Search our weather history database for the weather conditions in past years. The results will help you decide how hot, cold, wet, or windy it might be!

Date:

Astronomy

Nov. 29, 2013 Rise Set
Actual Time 7:22 AM CST 5:26 PM CST
Civil Twilight 6:55 AM CST 5:53 PM CST
Nautical Twilight 6:24 AM CST 6:24 PM CST
Astronomical Twilight 5:53 AM CST 6:54 PM CST
Moon 3:38 AM CST (11/29) 3:04 PM CST (11/29)
Length of Visible Light 10h 58m
Length of Day
10h 03m
Waning Crescent, 14% of the Moon is Illuminated
Nov 29
Waning Crescent
Dec 2
New
Dec 9
First Quarter
Dec 17
Full
Dec 25
Last Quarter

Hourly Weather History & Observations

Time (CST) Temp. Windchill Dew Point Humidity Pressure Visibility Wind Dir Wind Speed Gust Speed Precip Events Conditions
12:53 AM 34.0 °F 29.8 °F 25.0 °F 70% 30.37 in 10.0 mi East 4.6 mph - N/A   Clear
1:53 AM 32.0 °F 26.4 °F 25.0 °F 75% 30.36 in 10.0 mi East 5.8 mph - N/A   Clear
2:53 AM 30.9 °F 26.2 °F 24.1 °F 76% 30.38 in 10.0 mi East 4.6 mph - N/A   Clear
3:53 AM 30.0 °F 22.4 °F 24.1 °F 79% 30.37 in 10.0 mi East 8.1 mph - N/A   Clear
4:53 AM 30.0 °F 22.4 °F 24.1 °F 79% 30.37 in 10.0 mi East 8.1 mph - N/A   Clear
5:53 AM 28.9 °F 21.9 °F 24.1 °F 82% 30.39 in 10.0 mi East 6.9 mph - N/A   Clear
6:53 AM 28.0 °F 20.8 °F 23.0 °F 81% 30.40 in 10.0 mi East 6.9 mph - N/A   Clear
7:53 AM 28.9 °F 21.9 °F 24.1 °F 82% 30.41 in 10.0 mi East 6.9 mph - N/A   Clear
8:53 AM 33.1 °F 28.7 °F 27.0 °F 78% 30.41 in 10.0 mi ESE 4.6 mph - N/A   Clear
9:53 AM 41.0 °F 37.1 °F 28.9 °F 62% 30.42 in 10.0 mi SSW 5.8 mph - N/A   Clear
10:53 AM 46.9 °F - 30.9 °F 54% 30.40 in 10.0 mi South 5.8 mph - N/A   Clear
11:53 AM 55.0 °F - 30.9 °F 40% 30.36 in 10.0 mi South 12.7 mph 19.6 mph N/A   Clear
12:53 PM 59.0 °F - 30.0 °F 33% 30.31 in 10.0 mi SSW 15.0 mph - N/A   Clear
1:53 PM 60.1 °F - 30.9 °F 33% 30.27 in 10.0 mi SSW 19.6 mph - N/A   Clear
2:53 PM 61.0 °F - 30.0 °F 31% 30.25 in 10.0 mi South 18.4 mph - N/A   Clear
3:53 PM 60.1 °F - 30.0 °F 32% 30.24 in 10.0 mi SSW 16.1 mph - N/A   Clear
4:53 PM 57.9 °F - 30.9 °F 36% 30.23 in 10.0 mi South 13.8 mph - N/A   Clear
5:53 PM 51.1 °F - 32.0 °F 48% 30.24 in 10.0 mi South 10.4 mph - N/A   Clear
6:53 PM 48.9 °F - 30.9 °F 50% 30.24 in 10.0 mi South 12.7 mph - N/A   Clear
7:53 PM 46.0 °F 41.0 °F 32.0 °F 58% 30.25 in 10.0 mi South 10.4 mph - N/A   Clear
8:53 PM 42.1 °F 36.6 °F 30.9 °F 65% 30.26 in 10.0 mi SSE 9.2 mph - N/A   Clear
9:53 PM 43.0 °F 37.7 °F 32.0 °F 65% 30.26 in 10.0 mi SSE 9.2 mph - N/A   Clear
10:53 PM 41.0 °F 34.3 °F 32.0 °F 70% 30.25 in 10.0 mi South 11.5 mph - N/A   Clear
11:53 PM 42.1 °F 36.1 °F 33.1 °F 70% 30.23 in 10.0 mi South 10.4 mph - N/A   Clear